| time (UTC) | temp C | wind direction | speed KPH | gust KPH | rain 1hr cm | rain 24hr cm | rain mn cm | humidity % | barometer mb |
| 20260507030559 | 8 | 0.0 | 0.0 | 0.00 | 0.00 | 0.00 | 44 | 1009.4 | |
| 20260507022038 | 8 | 0.0 | 0.0 | 0.00 | 0.00 | 0.00 | 42 | 1009.4 | |
| 20260507020559 | 8 | 0.0 | 0.0 | 0.00 | 0.00 | 0.00 | 42 | 1009.7 | |
| 20260507012901 | 9 | 0.0 | 0.0 | 0.00 | 0.00 | 0.00 | 41 | 1009.7 | |
| 20260507010559 | 9 | 0.0 | 0.0 | 0.00 | 0.00 | 0.00 | 41 | 1009.0 | |
| 20260507004803 | 9 | 0.0 | 0.0 | 0.00 | 0.00 | 0.00 | 38 | 1009.0 | |
| 20260507003433 | 9 | 0.0 | 0.0 | 0.00 | 0.00 | 0.00 | 38 | 1009.4 | |
| 20260507000559 | 9 | 0.0 | 0.0 | 0.00 | 0.00 | 0.00 | 38 | 1009.0 | |
| 20260506235847 | 9 | 0.0 | 0.0 | 0.00 | 0.00 | 0.00 | 38 | 1008.0 | |
| 20260506233652 | 9 | 0.0 | 0.0 | 0.00 | 0.00 | 0.00 | 38 | 1009.0 | |
| 20260506233037 | 9 | 0.0 | 0.0 | 0.00 | 0.00 | 0.00 | 38 | 1009.0 | |
| 20260506230344 | 9 | 0.0 | 0.0 | 0.00 | 0.00 | 0.00 | 38 | 1008.0 | |
| 20260506225437 | 9 | 0.0 | 0.0 | 0.00 | 0.00 | 0.00 | 38 | 1008.0 | |
| 20260506220343 | 9 | 0.0 | 0.0 | 0.00 | 0.00 | 0.00 | 38 | 1008.7 | |
| 20260506211447 | 9 | 0.0 | 0.0 | 0.00 | 0.00 | 0.00 | 39 | 1008.7 | |
| 20260506205856 | 9 | 0.0 | 0.0 | 0.00 | 0.00 | 0.00 | 40 | 1008.0 | |
| 20260506204844 | 9 | 0.0 | 0.0 | 0.00 | 0.00 | 0.00 | 40 | 1009.0 | |
| 20260506204244 | 9 | 0.0 | 0.0 | 0.00 | 0.00 | 0.00 | 40 | 1009.0 | |
| 20260506203458 | 9 | 0.0 | 0.0 | 0.00 | 0.00 | 0.00 | 40 | 1008.0 | |
| 20260506202844 | 9 | 0.0 | 0.0 | 0.00 | 0.00 | 0.00 | 40 | 1009.0 | |
| 20260506201625 | 9 | 0.0 | 0.0 | 0.00 | 0.00 | 0.00 | 38 | 1009.0 | |
| 20260506195844 | 9 | 0.0 | 0.0 | 0.00 | 0.00 | 0.00 | 40 | 1009.0 | |
| 20260506194019 | 9 | 0.0 | 0.0 | 0.00 | 0.00 | 0.00 | 40 | 1009.0 | |
| 20260506193344 | 9 | 0.0 | 0.0 | 0.00 | 0.00 | 0.00 | 40 | 1009.4 | |
| 20260506192438 | 8 | 0.0 | 0.0 | 0.00 | 0.00 | 0.00 | 40 | 1009.4 | |
| 20260506190343 | 8 | 0.0 | 0.0 | 0.00 | 0.00 | 0.00 | 40 | 1009.0 | |
| 20260506184007 | 8 | 0.0 | 0.0 | 0.00 | 0.00 | 0.00 | 40 | 1009.0 | |
| 20260506182931 | 8 | 0.0 | 0.0 | 0.00 | 0.00 | 0.00 | 40 | 1009.2 | |
| 20260506182344 | 8 | 0.0 | 0.0 | 0.00 | 0.00 | 0.00 | 40 | 1009.0 | |
| 20260506181343 | 8 | 0.0 | 0.0 | 0.00 | 0.00 | 0.00 | 41 | 1009.0 | |
| 20260506173844 | 8 | 0.0 | 0.0 | 0.00 | 0.00 | 0.00 | 40 | 1009.0 | |
| 20260506173317 | 8 | 0.0 | 0.0 | 0.00 | 0.00 | 0.00 | 40 | 1009.7 | |
| 20260506172159 | 8 | 0.0 | 0.0 | 0.00 | 0.00 | 0.00 | 40 | 1009.0 | |
| 20260506171302 | 8 | 0.0 | 0.0 | 0.00 | 0.00 | 0.00 | 40 | 1010.0 | |
| 20260506170343 | 8 | 0.0 | 0.0 | 0.00 | 0.00 | 0.00 | 40 | 1010.2 | |
| 20260506163657 | 8 | 0.0 | 0.0 | 0.00 | 0.00 | 0.00 | 44 | 1010.2 | |
| 20260506160001 | 8 | 0.0 | 0.0 | 0.00 | 0.00 | 0.00 | 44 | 1010.0 | |
| 20260506153705 | 8 | 0.0 | 0.0 | 0.00 | 0.00 | 0.00 | 44 | 1010.7 | |
| 20260506150343 | 8 | 0.0 | 0.0 | 0.00 | 0.00 | 0.00 | 44 | 1010.8 | |
| 20260506145343 | 8 | 0.0 | 0.0 | 0.00 | 0.00 | 0.00 | 44 | 1010.8 | |
| 20260506144508 | 8 | 0.0 | 0.0 | 0.00 | 0.00 | 0.00 | 46 | 1010.8 | |
| 20260506141841 | 8 | 0.0 | 0.0 | 0.00 | 0.00 | 0.00 | 46 | 1010.0 | |
| 20260506140341 | 8 | 0.0 | 0.0 | 0.00 | 0.00 | 0.00 | 46 | 1010.0 | |
| 20260506135305 | 8 | 0.0 | 0.0 | 0.00 | 0.00 | 0.00 | 45 | 1010.8 | |
| 20260506133448 | 8 | 0.0 | 0.0 | 0.00 | 0.00 | 0.00 | 45 | 1010.0 | |
| 20260506125521 | 8 | 0.0 | 0.0 | 0.00 | 0.00 | 0.00 | 44 | 1010.6 | |
| 20260506123326 | 8 | 0.0 | 0.0 | 0.00 | 0.00 | 0.00 | 44 | 1010.0 | |
| 20260506120405 | 8 | 0.0 | 0.0 | 0.00 | 0.00 | 0.00 | 44 | 1010.8 | |
| 20260506115619 | 8 | 0.0 | 0.0 | 0.00 | 0.00 | 0.00 | 45 | 1010.8 | |
| 20260506115035 | 8 | 0.0 | 0.0 | 0.00 | 0.00 | 0.00 | 46 | 1010.0 | |
| 20260506111742 | 8 | 0.0 | 0.0 | 0.00 | 0.00 | 0.00 | 46 | 1011.0 | |
| 20260506110405 | 8 | 0.0 | 0.0 | 0.00 | 0.00 | 0.00 | 46 | 1011.0 | |
| 20260506105142 | 9 | 0.0 | 0.0 | 0.00 | 0.00 | 0.00 | 42 | 1011.0 | |
| 20260506104205 | 9 | 0.0 | 0.0 | 0.00 | 0.00 | 0.00 | 42 | 1010.0 | |
| 20260506100405 | 9 | 0.0 | 0.0 | 0.00 | 0.00 | 0.00 | 42 | 1010.0 | |
| 20260506094123 | 9 | 0.0 | 0.0 | 0.00 | 0.00 | 0.00 | 40 | 1010.0 | |
| 20260506093508 | 9 | 0.0 | 0.0 | 0.00 | 0.00 | 0.00 | 40 | 1009.0 | |
| 20260506092813 | 9 | 0.0 | 0.0 | 0.00 | 0.00 | 0.00 | 40 | 1010.0 | |
| 20260506091948 | 9 | 0.0 | 0.0 | 0.00 | 0.00 | 0.00 | 40 | 1009.0 | |
| 20260506091341 | 9 | 0.0 | 0.0 | 0.00 | 0.00 | 0.00 | 40 | 1009.8 | |
| 20260506090405 | 9 | 0.0 | 0.0 | 0.00 | 0.00 | 0.00 | 40 | 1009.0 | |
| 20260506083807 | 10 | 0.0 | 0.0 | 0.00 | 0.00 | 0.00 | 39 | 1009.0 | |
| 20260506081341 | 10 | 0.0 | 0.0 | 0.00 | 0.00 | 0.00 | 39 | 1010.0 | |
| 20260506080405 | 10 | 0.0 | 0.0 | 0.00 | 0.00 | 0.00 | 39 | 1009.0 | |
| 20260506072322 | 10 | 0.0 | 0.0 | 0.00 | 0.00 | 0.00 | 39 | 1010.0 | |
| 20260506071325 | 10 | 0.0 | 0.0 | 0.00 | 0.00 | 0.00 | 39 | 1009.8 | |
| 20260506070405 | 10 | 0.0 | 0.0 | 0.00 | 0.00 | 0.00 | 39 | 1009.0 | |
| 20260506062117 | 10 | 0.0 | 0.0 | 0.00 | 0.00 | 0.00 | 40 | 1009.0 | |
| 20260506061514 | 10 | 0.0 | 0.0 | 0.00 | 0.00 | 0.00 | 40 | 1009.4 | |
| 20260506060404 | 10 | 0.0 | 0.0 | 0.00 | 0.00 | 0.00 | 40 | 1009.0 | |
| 20260506045019 | 10 | 0.0 | 0.0 | 0.00 | 0.00 | 0.00 | 42 | 1009.0 | |
| 20260506042918 | 10 | 0.0 | 0.0 | 0.00 | 0.00 | 0.00 | 42 | 1009.0 | |
| 20260506042414 | 10 | 0.0 | 0.0 | 0.00 | 0.00 | 0.00 | 42 | 1008.8 | |
| 20260506040518 | 10 | 0.0 | 0.0 | 0.00 | 0.00 | 0.00 | 42 | 1008.0 | |
| 20260506035724 | 10 | 0.0 | 0.0 | 0.00 | 0.00 | 0.00 | 42 | 1008.0 | |
| 20260506035018 | 10 | 0.0 | 0.0 | 0.00 | 0.00 | 0.00 | 42 | 1007.9 | |
| 20260506033307 | 10 | 0.0 | 0.0 | 0.00 | 0.00 | 0.00 | 40 | 1007.9 |